World > North America > United States > Illinois
Hourly Weather in Champlin, IllinoisChamplin, Illinois Hourly Weather

Champlin, IL Hourly Weather

Hourly Weather Champlin, IllinoisHourly Weather in Champlin, IL
Lat: 40.78N, Lon: 88.55W  ICAO: KPNT
Web Search
Champlin Weather Warning NWS WEATHER ALERT FOR THE CHAMPLIN, IL AREA - Issued: 328 PM CDT Wed Sep 22 2021 Champlin Weather Warning  

Our weather pages are very print friendly and they make great conversation starters.

Feedback

Champlin Hourly Weather

36 Hour Weather Scroll   °F Click to change Champlin hourly weather to Imperial units.Click to change Champlin hourly weather to Metric units. °C
Currently, Clear, temperature is 66°F19°C, dew point 40°F4°C, humidity 38%. Wind direction is N at 18 mph29 km/h with visibility of 10.00 mi16 km. Barometric pressure is 30 in1016 mb.

Sep 22
4:00 PM

Sep 22
5:00 PM

Sep 22
6:00 PM

Sep 22
7:00 PM

Sep 22
8:00 PM

Sep 22
9:00 PM

Sep 22
10:00 PM

Sep 22
11:00 PM

Sep 23
MIDNIGHT

Sep 23
1:00 AM

Sep 23
2:00 AM

Sep 23
3:00 AM

Sep 23
4:00 AM

Sep 23
5:00 AM

Sep 23
6:00 AM

Sep 23
7:00 AM

Sep 23
8:00 AM

Sep 23
9:00 AM

Sep 23
10:00 AM

Sep 23
11:00 AM

Sep 23
NOON

Sep 23
1:00 PM

Sep 23
2:00 PM

Sep 23
3:00 PM

Sep 23
4:00 PM

Sep 23
5:00 PM

Sep 23
6:00 PM

Sep 23
7:00 PM

Sep 23
8:00 PM

Sep 23
9:00 PM

Sep 23
10:00 PM

Sep 23
11:00 PM

Sep 24
MIDNIGHT

Sep 24
1:00 AM

Sep 24
2:00 AM

Sep 24
3:00 AM
Cloudy Cloudy Mostly Cloudy Mostly Cloudy Mostly Cloudy Clear Clear Clear Clear Clear Clear Clear Clear Clear Mostly Clear Mostly Clear Mostly Clear Clear Clear Clear Clear Clear Clear Clear Clear Clear Clear Clear Clear Clear Clear Clear Clear Clear Clear Clear
Cloudy Cloudy Mostly Cloudy Mostly Cloudy Mostly Cloudy Clear Clear Clear Clear Clear Clear Clear Clear Clear Mostly Clear Mostly Clear Mostly Clear Clear Clear Clear Clear Clear Clear Clear Clear Clear Clear Clear Clear Clear Clear Clear Clear Clear Clear Clear
67°F19°C 65°F18°C 64°F18°C 62°F17°C 59°F15°C 56°F13°C 53°F12°C 52°F11°C 50°F10°C 49°F9°C 48°F9°C 47°F8°C 46°F8°C 46°F8°C 45°F7°C 45°F7°C 49°F9°C 54°F12°C 58°F14°C 60°F16°C 61°F16°C 63°F17°C 64°F18°C 65°F18°C 66°F19°C 65°F18°C 63°F17°C 62°F17°C 59°F15°C 55°F13°C 52°F11°C 51°F11°C 50°F10°C 49°F9°C 48°F9°C 47°F8°C
- - - - - - - - - - - - - - - - - - - - - - - - - - - - - - - - - - - -
6% 6% 6% 6% 0% 0% 0% 0% 0% 0% 3% 3% 3% 3% 3% 3% 1% 1% 1% 1% 1% 1% 0% 0% 0% 0% 0% 0% 0% 0% 0% 0% 0% 0% 0% 0%
44°F7°C 44°F7°C 45°F7°C 45°F7°C 45°F7°C 44°F7°C 44°F7°C 43°F6°C 43°F6°C 42°F6°C 42°F6°C 41°F5°C 41°F5°C 41°F5°C 41°F5°C 41°F5°C 42°F6°C 43°F6°C 44°F7°C 42°F6°C 41°F5°C 39°F4°C 39°F4°C 38°F3°C 38°F3°C 39°F4°C 40°F4°C 41°F5°C 42°F6°C 42°F6°C 43°F6°C 43°F6°C 43°F6°C 43°F6°C 43°F6°C 42°F6°C
43% 47% 50% 54% 60% 64% 71% 71% 77% 77% 80% 80% 83% 83% 86% 86% 77% 66% 60% 51% 48% 41% 40% 37% 36% 38% 43% 46% 53% 61% 71% 74% 77% 80% 83% 83%
NNW NNW N N N N N NNW NW NW NW NW NW NW NW NW NW NW NNW NW NW NW NW NW NW NW NNW NNW NW W SSW SSW SSW SSW SSW SSW
14 mph 14 mph 13 mph 13 mph 13 mph 6 mph 6 mph 6 mph 4 mph 4 mph 4 mph 5 mph 5 mph 5 mph 5 mph 5 mph 5 mph 10 mph 10 mph 10 mph 12 mph 12 mph 12 mph 9 mph 9 mph 9 mph 3 mph 3 mph 3 mph 2 mph 2 mph 2 mph 3 mph 3 mph 3 mph 1 mph
10 mi16 km 10 mi16 km 10 mi16 km 10 mi16 km 10 mi16 km 10 mi16 km 10 mi16 km 10 mi16 km 10 mi16 km 10 mi16 km 10 mi16 km 10 mi16 km 10 mi16 km 10 mi16 km 10 mi16 km 10 mi16 km 10 mi16 km 10 mi16 km 10 mi16 km 10 mi16 km 10 mi16 km 10 mi16 km 10 mi16 km 10 mi16 km 10 mi16 km 10 mi16 km 10 mi16 km 10 mi16 km 10 mi16 km 10 mi16 km 10 mi16 km 10 mi16 km 10 mi16 km 10 mi16 km 10 mi16 km 10 mi16 km
Hour (CDT)
Weather
Clouds
Temperature
Precip. Type
POP
Dewpoint
Humidity
Wind Direction
Wind Speed
Visibility
POP = Probability of Precipitation. ** Indicates missing data/values from model statistics.

24 Hour Forecast

Tonight - Partly cloudy. Lows in the upper 40s. Northwest winds 10 to 20 mph.
Thursday - Partly cloudy in the morning then clearing. Highs in the mid 60s. Northwest winds 10 to 20 mph. Gusts up to 30 mph in the afternoon.

48 Hour Forecast API Feed


Wed, Sep 22
4:00 pm

Wed, Sep 22
5:00 pm

Wed, Sep 22
6:00 pm

Wed, Sep 22
7:00 pm

Wed, Sep 22
8:00 pm

Wed, Sep 22
9:00 pm

Wed, Sep 22
10:00 pm

Wed, Sep 22
11:00 pm

Thu, Sep 23
Midnight

Thu, Sep 23
1:00 am

Thu, Sep 23
2:00 am

Thu, Sep 23
3:00 am

Thu, Sep 23
4:00 am

Thu, Sep 23
5:00 am

Thu, Sep 23
6:00 am

Thu, Sep 23
7:00 am

Thu, Sep 23
8:00 am

Thu, Sep 23
9:00 am

Thu, Sep 23
10:00 am

Thu, Sep 23
11:00 am

Thu, Sep 23
Noon

Thu, Sep 23
1:00 pm

Thu, Sep 23
2:00 pm

Thu, Sep 23
3:00 pm

Thu, Sep 23
4:00 pm

Thu, Sep 23
5:00 pm

Thu, Sep 23
6:00 pm

Thu, Sep 23
7:00 pm

Thu, Sep 23
8:00 pm

Thu, Sep 23
9:00 pm

Thu, Sep 23
10:00 pm

Thu, Sep 23
11:00 pm

Fri, Sep 24
Midnight

Fri, Sep 24
1:00 am

Fri, Sep 24
2:00 am

Fri, Sep 24
3:00 am

Fri, Sep 24
4:00 am

Fri, Sep 24
5:00 am

Fri, Sep 24
6:00 am

Fri, Sep 24
7:00 am

Fri, Sep 24
8:00 am

Fri, Sep 24
9:00 am

Fri, Sep 24
10:00 am

Fri, Sep 24
11:00 am

Fri, Sep 24
Noon

Fri, Sep 24
1:00 pm

Fri, Sep 24
2:00 pm

Fri, Sep 24
3:00 pm
Partly CloudyPartly CloudyPartly CloudyPartly CloudyPartly CloudyPartly CloudyOvercastCloudyPartly CloudyCloudyOvercastOvercastPartly CloudyPartly CloudyPartly CloudyPartly CloudyPartly CloudyPartly CloudyPartly CloudyPartly CloudyPartly CloudyPartly CloudyPartly CloudyPartly CloudyPartly CloudyPartly CloudyPartly CloudyPartly CloudyPartly CloudyPartly CloudyPartly CloudyPartly CloudyPartly CloudyPartly CloudyPartly CloudyPartly CloudyPartly CloudyClearClearSunnySunnySunnyPartly CloudyPartly CloudyPartly CloudyPartly CloudyPartly CloudyPartly Cloudy
Partly cloudy Partly cloudy Partly cloudy Partly cloudy Partly cloudy Partly cloudy Overcast Cloudy Partly cloudy Cloudy Overcast Overcast Partly cloudy Partly cloudy Partly cloudy Partly cloudy Partly cloudy Partly cloudy Partly cloudy Partly cloudy Partly cloudy Partly cloudy Partly cloudy Partly cloudy Partly cloudy Partly cloudy Partly cloudy Partly cloudy Partly cloudy Partly cloudy Partly cloudy Partly cloudy Partly cloudy Partly cloudy Partly cloudy Partly cloudy Partly cloudy Clear Clear Sunny Sunny Sunny Partly cloudy Partly cloudy Partly cloudy Partly cloudy Partly cloudy Partly cloudy
64°F
18°C
64°F
18°C
62°F
17°C
59°F
15°C
57°F
14°C
55°F
13°C
54°F
12°C
53°F
11°C
52°F
11°C
52°F
11°C
52°F
11°C
52°F
11°C
51°F
11°C
49°F
10°C
48°F
9°C
47°F
8°C
49°F
10°C
53°F
12°C
57°F
14°C
60°F
16°C
62°F
17°C
64°F
18°C
66°F
19°C
67°F
19°C
67°F
20°C
67°F
19°C
63°F
17°C
58°F
14°C
54°F
12°C
53°F
12°C
53°F
11°C
52°F
11°C
52°F
11°C
51°F
11°C
51°F
10°C
50°F
10°C
50°F
10°C
50°F
10°C
49°F
10°C
49°F
10°C
53°F
12°C
59°F
15°C
65°F
18°C
69°F
21°C
73°F
23°C
75°F
24°C
76°F
25°C
77°F
25°C
41°F
5°C
41°F
5°C
41°F
5°C
39°F
4°C
38°F
4°C
38°F
4°C
38°F
3°C
38°F
3°C
38°F
3°C
38°F
3°C
37°F
3°C
37°F
3°C
36°F
2°C
36°F
2°C
36°F
2°C
36°F
2°C
37°F
3°C
38°F
4°C
39°F
4°C
38°F
3°C
36°F
2°C
36°F
2°C
35°F
2°C
35°F
2°C
35°F
2°C
37°F
3°C
40°F
4°C
36°F
2°C
35°F
1°C
34°F
1°C
34°F
1°C
34°F
1°C
34°F
1°C
34°F
1°C
35°F
2°C
37°F
3°C
39°F
4°C
40°F
5°C
41°F
5°C
40°F
5°C
42°F
6°C
43°F
6°C
43°F
6°C
44°F
7°C
44°F
7°C
44°F
7°C
44°F
7°C
45°F
7°C
30.06 in
1018 mb
30.06 in
1018 mb
30.06 in
1018 mb
30.09 in
1019 mb
30.09 in
1019 mb
30.09 in
1019 mb
30.09 in
1019 mb
30.09 in
1019 mb
30.06 in
1018 mb
30.06 in
1018 mb
30.03 in
1017 mb
30.03 in
1017 mb
30.03 in
1017 mb
30.03 in
1017 mb
30.06 in
1018 mb
30.06 in
1018 mb
30.06 in
1018 mb
30.06 in
1018 mb
30.06 in
1018 mb
30.03 in
1017 mb
30.03 in
1017 mb
30 in
1016 mb
30 in
1016 mb
29.97 in
1015 mb
29.97 in
1015 mb
29.94 in
1014 mb
29.97 in
1015 mb
29.97 in
1015 mb
30 in
1016 mb
30 in
1016 mb
30 in
1016 mb
30 in
1016 mb
30.03 in
1017 mb
30.03 in
1017 mb
30.03 in
1017 mb
30.03 in
1017 mb
30.03 in
1017 mb
30.06 in
1018 mb
30.06 in
1018 mb
30.09 in
1019 mb
30.09 in
1019 mb
30.09 in
1019 mb
30.09 in
1019 mb
30.09 in
1019 mb
30.06 in
1018 mb
30.06 in
1018 mb
30.03 in
1017 mb
30 in
1016 mb
43%43%46%48%50%53%54%58%58%59%57%56%56%59%62%64%64%57%50%44%38%35%32%30%30%33%42%44%47%48%49%50%50%52%54%59%66%70%71%71%67%54%46%40%36%33%32%32%
NNNNWNNWNNWNNWNNWNNWNNWNWNNWNNWNNWNWNWNWNWNWNWNWNWNWNNWNNWNNWNWNWNNWNNWWNWWSWWSWWSWWSWWSWWSWWSWWSWWSWWSWWSWWSWWSWSWSWSWSSWSSW
15 mph
25 km/h
14 mph
23 km/h
14 mph
22 km/h
13 mph
20 km/h
11 mph
18 km/h
11 mph
18 km/h
10 mph
16 km/h
10 mph
15 km/h
10 mph
16 km/h
11 mph
17 km/h
11 mph
18 km/h
12 mph
19 km/h
11 mph
18 km/h
10 mph
17 km/h
10 mph
17 km/h
11 mph
17 km/h
12 mph
19 km/h
14 mph
23 km/h
15 mph
24 km/h
16 mph
26 km/h
17 mph
27 km/h
16 mph
26 km/h
16 mph
25 km/h
15 mph
24 km/h
14 mph
23 km/h
11 mph
18 km/h
6 mph
10 km/h
4 mph
7 km/h
2 mph
4 km/h
2 mph
4 km/h
3 mph
5 km/h
3 mph
5 km/h
4 mph
6 km/h
5 mph
8 km/h
5 mph
9 km/h
6 mph
10 km/h
7 mph
12 km/h
7 mph
12 km/h
7 mph
12 km/h
7 mph
11 km/h
6 mph
9 km/h
7 mph
12 km/h
8 mph
13 km/h
8 mph
13 km/h
9 mph
14 km/h
10 mph
15 km/h
10 mph
16 km/h
11 mph
17 km/h
0%0%0%0%0%0%0%0%0%0%0%0%0%0%0%0%0%0%0%0%0%0%0%0%0%0%0%0%0%0%0%0%0%0%0%0%0%0%0%0%0%0%0%0%0%0%0%0%
6 mi
10 km
6 mi
10 km
6 mi
10 km
6 mi
10 km
6 mi
10 km
6 mi
10 km
6 mi
10 km
6 mi
10 km
6 mi
10 km
6 mi
10 km
6 mi
10 km
6 mi
10 km
6 mi
10 km
6 mi
10 km
6 mi
10 km
6 mi
10 km
6 mi
10 km
6 mi
10 km
6 mi
10 km
6 mi
10 km
6 mi
10 km
6 mi
10 km
6 mi
10 km
6 mi
10 km
6 mi
10 km
6 mi
10 km
6 mi
10 km
6 mi
10 km
6 mi
10 km
6 mi
10 km
6 mi
10 km
6 mi
10 km
6 mi
10 km
6 mi
10 km
6 mi
10 km
6 mi
10 km
6 mi
10 km
6 mi
10 km
6 mi
10 km
6 mi
10 km
6 mi
10 km
6 mi
10 km
6 mi
10 km
6 mi
10 km
6 mi
10 km
6 mi
10 km
6 mi
10 km
6 mi
10 km

Day/Time
Weather
Condition
Temperature
Dew Point
Pressure
Humidity
Wind Direction
Wind Speed
Prob Precip %
Visibility
Prob Precip % = Probability of Precipitation.